Tracking 30102 objects as of 12-Dec-2024
HD Live streaming from Space Station
objects crossing your sky now

INTELSAT 904

Track INTELSAT 904 now!
INTELSAT 904 is classified as:


NORAD ID: 27380
Int'l Code: 2002-007A
Perigee: 35,779.6 km
Apogee: 35,807.8 km
Inclination: 5.5 °
Period: 1,436.1 minutes
Semi major axis: 42164 km
RCS: 11.3214 m2 (large)
Launch date: February 23, 2002
Source: International Telecommunications Satellite Organization (ITSO)
Launch site: FRENCH GUIANA (FRGUI)

76 C-band, 22 Ku-band, broadcasting, business services, direct-to-home TV broadcasting, telecommunications, VSAT networks; Indian Ocean region.
Your satellite tracking list
Your tracking list is empty




NASA's NSSDC Master Catalog

Two Line Element Set (TLE):
1 27380U 02007A   24347.23313091 -.00000203  00000-0  00000+0 0  9996
2 27380   5.5312  75.7677 0003335 193.0325 227.0505  1.00271970 83553
Source of the keplerian elements: AFSPC